"Datum/tijd (MEZT)";"astronomisch [cm]";"verwachting RWS";"waterstand [cm]"
2024-04-22 13:00;37;28;28
2024-04-22 13:10;36;28;28
2024-04-22 13:20;35;27;27
2024-04-22 13:30;34;26;26
2024-04-22 13:40;34;25;25
2024-04-22 13:50;33;25;25
2024-04-22 14:00;33;24;24
2024-04-22 14:10;32;24;24
2024-04-22 14:20;32;23;24
2024-04-22 14:30;31;23;24
2024-04-22 14:40;31;24;24
2024-04-22 14:50;32;24;23
2024-04-22 15:00;32;25;24
2024-04-22 15:10;33;26;25
2024-04-22 15:20;34;28;27
2024-04-22 15:30;35;30;29
2024-04-22 15:40;36;32;32
2024-04-22 15:50;38;34;33
2024-04-22 16:00;39;36;34
2024-04-22 16:10;41;38;37
2024-04-22 16:20;43;40;39
2024-04-22 16:30;44;42;41
2024-04-22 16:40;46;43;43
2024-04-22 16:50;47;45;44
2024-04-22 17:00;49;46;45
2024-04-22 17:10;50;47;47
2024-04-22 17:20;51;48;48
2024-04-22 17:30;53;50;50
2024-04-22 17:40;54;51;52
2024-04-22 17:50;55;52;55
2024-04-22 18:00;56;53;56
2024-04-22 18:10;57;54;57
2024-04-22 18:20;58;56;57
2024-04-22 18:30;59;57;57
2024-04-22 18:40;60;58;57
2024-04-22 18:50;61;60;59
2024-04-22 19:00;62;60;60
2024-04-22 19:10;62;61;61
2024-04-22 19:20;63;62;62
2024-04-22 19:30;63;62;62
2024-04-22 19:40;64;62;62
2024-04-22 19:50;64;61;61
2024-04-22 20:00;64;60;60
2024-04-22 20:10;64;59;59
2024-04-22 20:20;64;58;58
2024-04-22 20:30;63;56;57
2024-04-22 20:40;63;55;56
2024-04-22 20:50;62;54;55
2024-04-22 21:00;62;52;54
2024-04-22 21:10;61;51;53
2024-04-22 21:20;60;50;52
2024-04-22 21:30;60;49;52
2024-04-22 21:40;59;48;51
2024-04-22 21:50;59;47;50
2024-04-22 22:00;58;46;49
2024-04-22 22:10;57;45;48
2024-04-22 22:20;57;44;48
2024-04-22 22:30;56;43;47
2024-04-22 22:40;55;42;46
2024-04-22 22:50;55;41;45
2024-04-22 23:00;54;41;44
2024-04-22 23:10;53;40;43
2024-04-22 23:20;53;39;42
2024-04-22 23:30;52;38;41
2024-04-22 23:40;51;37;40
2024-04-22 23:50;50;36;39
2024-04-23 00:00;49;38;38
2024-04-23 00:10;48;36;36
2024-04-23 00:20;48;36;36
2024-04-23 00:30;47;34;34
2024-04-23 00:40;46;34;34
2024-04-23 00:50;45;32;32
2024-04-23 01:00;44;31;31
2024-04-23 01:10;43;30;30
2024-04-23 01:20;42;29;30
2024-04-23 01:30;41;28;28
2024-04-23 01:40;41;27;28
2024-04-23 01:50;40;26;27
2024-04-23 02:00;39;25;26
2024-04-23 02:10;38;24;25
2024-04-23 02:20;37;23;25
2024-04-23 02:30;37;23;24
2024-04-23 02:40;36;22;24
2024-04-23 02:50;36;22;23
2024-04-23 03:00;36;22;23
2024-04-23 03:10;36;23;24
2024-04-23 03:20;37;24;24
2024-04-23 03:30;38;25;26
2024-04-23 03:40;38;27;28
2024-04-23 03:50;40;29;30
2024-04-23 04:00;41;31;32
2024-04-23 04:10;42;32;35
2024-04-23 04:20;43;34;36
2024-04-23 04:30;45;37;38
2024-04-23 04:40;46;39;40
2024-04-23 04:50;48;41;42
2024-04-23 05:00;49;42;43
2024-04-23 05:10;50;44;44
2024-04-23 05:20;52;45;46
2024-04-23 05:30;53;47;47
2024-04-23 05:40;54;48;49
2024-04-23 05:50;55;49;50
2024-04-23 06:00;56;50;51
2024-04-23 06:10;56;52;53
2024-04-23 06:20;57;53;54
2024-04-23 06:30;58;53;55
2024-04-23 06:40;59;54;56
2024-04-23 06:50;60;55;56
2024-04-23 07:00;60;57;57
2024-04-23 07:10;61;58;58
2024-04-23 07:20;61;58;58
2024-04-23 07:30;62;59;59
2024-04-23 07:40;62;59;59
2024-04-23 07:50;62;58;58
2024-04-23 08:00;62;57;57
2024-04-23 08:10;62;56;56
2024-04-23 08:20;61;54;54
2024-04-23 08:30;61;53;53
2024-04-23 08:40;60;52;52
2024-04-23 08:50;60;50;50
2024-04-23 09:00;59;50;49
2024-04-23 09:10;58;48;48
2024-04-23 09:20;58;47;46
2024-04-23 09:30;57;46;45
2024-04-23 09:40;56;44;44
2024-04-23 09:50;56;43;43
2024-04-23 10:00;55;42;41
2024-04-23 10:10;55;40;40
2024-04-23 10:20;54;39;39
2024-04-23 10:30;54;38;
2024-04-23 10:40;53;37;
2024-04-23 10:50;52;36;36
2024-04-23 11:00;52;35;35
2024-04-23 11:10;51;33;34
2024-04-23 11:20;50;32;33
2024-04-23 11:30;49;31;32
2024-04-23 11:40;48;30;31
2024-04-23 11:50;47;29;30
2024-04-23 12:00;46;29;29
2024-04-23 12:10;45;28;28
2024-04-23 12:20;44;27;27
2024-04-23 12:30;43;26;26
2024-04-23 12:40;42;25;25
2024-04-23 12:50;41;23;23
2024-04-23 13:00;40;22;22
2024-04-23 13:10;39;21;21
2024-04-23 13:20;39;20;20
2024-04-23 13:30;38;19;19
2024-04-23 13:40;37;18;18
2024-04-23 13:50;37;17;17
2024-04-23 14:00;36;16;16
2024-04-23 14:10;35;16;16
2024-04-23 14:20;35;15;15
2024-04-23 14:30;34;14;15
2024-04-23 14:40;34;14;15
2024-04-23 14:50;33;14;15
2024-04-23 15:00;33;15;15
2024-04-23 15:10;33;16;15
2024-04-23 15:20;33;17;16
2024-04-23 15:30;33;19;18
2024-04-23 15:40;34;22;21
2024-04-23 15:50;35;24;23
2024-04-23 16:00;36;26;26
2024-04-23 16:10;37;28;28
2024-04-23 16:20;39;30;30
2024-04-23 16:30;40;32;32
2024-04-23 16:40;42;34;34
2024-04-23 16:50;44;36;36
2024-04-23 17:00;45;37;38
2024-04-23 17:10;47;39;40
2024-04-23 17:20;49;40;41
2024-04-23 17:30;50;42;43
2024-04-23 17:40;52;44;45
2024-04-23 17:50;53;45;46
2024-04-23 18:00;54;47;48
2024-04-23 18:10;55;48;51
2024-04-23 18:20;56;50;52
2024-04-23 18:30;57;51;54
2024-04-23 18:40;58;53;54
2024-04-23 18:50;59;54;54
2024-04-23 19:00;60;55;55
2024-04-23 19:10;61;56;56
2024-04-23 19:20;62;58;58
2024-04-23 19:30;63;59;59
2024-04-23 19:40;63;62;62
2024-04-23 19:50;64;63;63
2024-04-23 20:00;65;64;64
2024-04-23 20:10;65;64;64
2024-04-23 20:20;65;66;66
2024-04-23 20:30;65;65;65
2024-04-23 20:40;65;64;64
2024-04-23 20:50;65;62;62
2024-04-23 21:00;64;60;60
2024-04-23 21:10;64;60;60
2024-04-23 21:20;63;59;59
2024-04-23 21:30;62;57;57
2024-04-23 21:40;62;56;56
2024-04-23 21:50;61;55;55
2024-04-23 22:00;60;53;53
2024-04-23 22:10;60;52;52
2024-04-23 22:20;59;51;51
2024-04-23 22:30;59;49;51
2024-04-23 22:40;58;48;50
2024-04-23 22:50;57;48;49
2024-04-23 23:00;57;48;48
2024-04-23 23:10;56;47;47
2024-04-23 23:20;55;46;46
2024-04-23 23:30;55;46;46
2024-04-23 23:40;54;45;45
2024-04-23 23:50;53;44;44
2024-04-24 00:00;52;43;43
2024-04-24 00:10;51;42;42
2024-04-24 00:20;50;42;42
2024-04-24 00:30;49;40;40
2024-04-24 00:40;49;39;39
2024-04-24 00:50;48;38;38
2024-04-24 01:00;47;37;37
2024-04-24 01:10;46;36;37
2024-04-24 01:20;45;35;36
2024-04-24 01:30;44;34;36
2024-04-24 01:40;44;33;35
2024-04-24 01:50;43;33;34
2024-04-24 02:00;42;32;34
2024-04-24 02:10;41;32;33
2024-04-24 02:20;40;32;32
2024-04-24 02:30;39;32;32
2024-04-24 02:40;39;32;33
2024-04-24 02:50;38;32;33
2024-04-24 03:00;37;33;33
2024-04-24 03:10;37;34;34
2024-04-24 03:20;36;35;34
2024-04-24 03:30;36;36;36
2024-04-24 03:40;37;38;39
2024-04-24 03:50;37;41;40
2024-04-24 04:00;38;43;42
2024-04-24 04:10;39;45;43
2024-04-24 04:20;40;47;45
2024-04-24 04:30;41;49;47
2024-04-24 04:40;43;51;49
2024-04-24 04:50;44;53;50
2024-04-24 05:00;46;55;52
2024-04-24 05:10;47;57;54
2024-04-24 05:20;49;59;56
2024-04-24 05:30;50;61;
2024-04-24 05:40;52;63;
2024-04-24 05:50;53;64;
2024-04-24 06:00;54;66;
2024-04-24 06:10;55;68;
2024-04-24 06:20;56;70;
2024-04-24 06:30;57;71;
2024-04-24 06:40;58;73;
2024-04-24 06:50;59;75;
2024-04-24 07:00;59;76;
2024-04-24 07:10;60;78;
2024-04-24 07:20;61;80;
2024-04-24 07:30;62;81;
2024-04-24 07:40;62;83;
2024-04-24 07:50;63;84;
2024-04-24 08:00;63;85;
2024-04-24 08:10;64;86;
2024-04-24 08:20;64;86;
2024-04-24 08:30;64;86;
2024-04-24 08:40;64;85;
2024-04-24 08:50;63;84;
2024-04-24 09:00;63;82;
2024-04-24 09:10;62;81;
2024-04-24 09:20;61;79;
2024-04-24 09:30;61;78;
2024-04-24 09:40;60;76;
2024-04-24 09:50;59;75;
2024-04-24 10:00;58;74;
2024-04-24 10:10;58;73;
2024-04-24 10:20;57;72;
2024-04-24 10:30;57;71;
2024-04-24 10:40;56;71;
2024-04-24 10:50;56;70;
2024-04-24 11:00;55;69;
2024-04-24 11:10;55;69;
2024-04-24 11:20;54;68;
2024-04-24 11:30;53;67;
2024-04-24 11:40;52;66;
2024-04-24 11:50;52;65;
2024-04-24 12:00;51;64;
2024-04-24 12:10;50;63;
2024-04-24 12:20;49;62;
2024-04-24 12:30;48;61;
2024-04-24 12:40;46;60;
2024-04-24 12:50;45;59;
2024-04-24 13:00;44;58;
2024-04-24 13:10;43;57;
2024-04-24 13:20;42;56;
2024-04-24 13:30;41;55;
2024-04-24 13:40;41;53;
2024-04-24 13:50;40;52;
2024-04-24 14:00;39;52;
2024-04-24 14:10;39;51;
2024-04-24 14:20;38;50;
2024-04-24 14:30;37;49;
2024-04-24 14:40;37;49;
2024-04-24 14:50;36;48;
2024-04-24 15:00;36;48;
2024-04-24 15:10;35;48;
2024-04-24 15:20;35;48;
2024-04-24 15:30;34;48;
2024-04-24 15:40;34;48;
2024-04-24 15:50;34;49;
2024-04-24 16:00;34;50;
2024-04-24 16:10;35;52;
2024-04-24 16:20;36;53;
2024-04-24 16:30;37;55;
2024-04-24 16:40;38;57;
2024-04-24 16:50;40;59;
2024-04-24 17:00;41;62;
2024-04-24 17:10;43;64;
2024-04-24 17:20;45;66;
2024-04-24 17:30;46;67;
2024-04-24 17:40;48;69;
2024-04-24 17:50;50;71;
2024-04-24 18:00;51;73;
2024-04-24 18:10;52;75;
2024-04-24 18:20;54;76;
2024-04-24 18:30;55;78;
2024-04-24 18:40;56;79;
2024-04-24 18:50;57;80;
2024-04-24 19:00;58;82;
2024-04-24 19:10;59;83;
2024-04-24 19:20;60;84;
2024-04-24 19:30;61;85;
2024-04-24 19:40;62;86;
2024-04-24 19:50;62;88;
2024-04-24 20:00;63;89;
2024-04-24 20:10;64;90;
2024-04-24 20:20;65;91;
2024-04-24 20:30;65;91;
2024-04-24 20:40;65;91;
2024-04-24 20:50;66;90;
2024-04-24 21:00;66;89;
2024-04-24 21:10;65;88;
2024-04-24 21:20;65;87;
2024-04-24 21:30;64;85;
2024-04-24 21:40;64;84;
2024-04-24 21:50;63;83;
2024-04-24 22:00;62;81;
2024-04-24 22:10;62;80;
2024-04-24 22:20;61;79;
2024-04-24 22:30;60;78;
2024-04-24 22:40;60;76;
2024-04-24 22:50;59;75;
2024-04-24 23:00;59;74;
2024-04-24 23:10;58;73;
2024-04-24 23:20;58;72;
2024-04-24 23:30;57;71;
2024-04-24 23:40;56;70;
2024-04-24 23:50;56;69;
2024-04-25 00:00;55;68;
2024-04-25 00:10;54;67;
2024-04-25 00:20;53;66;
2024-04-25 00:30;52;65;
2024-04-25 00:40;51;64;
2024-04-25 00:50;50;63;
2024-04-25 01:00;50;61;
2024-04-25 01:10;49;60;
2024-04-25 01:20;48;59;
2024-04-25 01:30;47;57;
2024-04-25 01:40;46;56;
2024-04-25 01:50;45;55;
2024-04-25 02:00;44;54;
2024-04-25 02:10;44;53;
2024-04-25 02:20;43;52;
2024-04-25 02:30;42;51;
2024-04-25 02:40;41;50;
2024-04-25 02:50;41;49;
2024-04-25 03:00;40;48;
2024-04-25 03:10;39;47;
2024-04-25 03:20;38;46;
2024-04-25 03:30;38;46;
2024-04-25 03:40;37;45;
2024-04-25 03:50;37;45;
2024-04-25 04:00;37;45;
2024-04-25 04:10;37;45;
2024-04-25 04:20;37;46;
2024-04-25 04:30;38;47;
2024-04-25 04:40;38;49;
2024-04-25 04:50;40;51;
2024-04-25 05:00;41;53;
2024-04-25 05:10;42;55;
2024-04-25 05:20;44;57;
2024-04-25 05:30;46;59;
2024-04-25 05:40;47;61;
2024-04-25 05:50;49;63;
2024-04-25 06:00;51;64;
2024-04-25 06:10;52;66;
2024-04-25 06:20;53;67;
2024-04-25 06:30;55;69;
2024-04-25 06:40;56;70;
2024-04-25 06:50;57;71;
2024-04-25 07:00;58;73;
2024-04-25 07:10;59;74;
2024-04-25 07:20;59;75;
2024-04-25 07:30;60;76;
2024-04-25 07:40;61;77;
2024-04-25 07:50;62;77;
2024-04-25 08:00;62;78;
2024-04-25 08:10;63;79;
2024-04-25 08:20;64;79;
2024-04-25 08:30;64;79;
2024-04-25 08:40;65;79;
2024-04-25 08:50;65;78;
2024-04-25 09:00;65;77;
2024-04-25 09:10;65;75;
2024-04-25 09:20;65;74;
2024-04-25 09:30;64;73;
2024-04-25 09:40;63;71;
2024-04-25 09:50;63;70;
2024-04-25 10:00;62;68;
2024-04-25 10:10;61;67;
2024-04-25 10:20;60;65;
2024-04-25 10:30;59;64;
2024-04-25 10:40;59;63;
2024-04-25 10:50;58;62;
2024-04-25 11:00;58;60;
2024-04-25 11:10;57;59;
2024-04-25 11:20;57;58;
2024-04-25 11:30;56;57;
2024-04-25 11:40;56;56;
2024-04-25 11:50;55;55;
2024-04-25 12:00;54;54;
2024-04-25 12:10;54;53;
2024-04-25 12:20;53;51;
2024-04-25 12:30;52;50;
2024-04-25 12:40;51;49;
2024-04-25 12:50;50;48;
2024-04-25 13:00;49;46;
2024-04-25 13:10;48;45;
2024-04-25 13:20;47;43;
2024-04-25 13:30;46;42;
2024-04-25 13:40;45;41;
2024-04-25 13:50;44;39;
2024-04-25 14:00;43;38;
2024-04-25 14:10;42;37;
2024-04-25 14:20;41;35;
2024-04-25 14:30;41;34;
2024-04-25 14:40;40;33;
2024-04-25 14:50;39;32;
2024-04-25 15:00;39;31;
2024-04-25 15:10;38;30;
2024-04-25 15:20;37;30;
2024-04-25 15:30;37;29;
2024-04-25 15:40;36;29;
2024-04-25 15:50;36;28;
2024-04-25 16:00;36;29;
2024-04-25 16:10;35;29;
2024-04-25 16:20;35;30;
2024-04-25 16:30;35;32;
2024-04-25 16:40;36;34;
2024-04-25 16:50;37;36;
2024-04-25 17:00;38;38;
2024-04-25 17:10;39;40;
2024-04-25 17:20;40;43;
2024-04-25 17:30;42;45;
2024-04-25 17:40;43;47;
2024-04-25 17:50;45;49;
2024-04-25 18:00;47;51;
2024-04-25 18:10;48;52;
2024-04-25 18:20;50;54;
2024-04-25 18:30;52;56;
2024-04-25 18:40;53;57;
2024-04-25 18:50;54;59;
2024-04-25 19:00;55;60;
2024-04-25 19:10;56;62;
2024-04-25 19:20;57;63;
2024-04-25 19:30;58;64;
2024-04-25 19:40;59;65;
2024-04-25 19:50;60;66;
2024-04-25 20:00;61;68;
2024-04-25 20:10;61;69;
2024-04-25 20:20;62;71;
2024-04-25 20:30;63;72;
2024-04-25 20:40;64;73;
2024-04-25 20:50;64;74;
2024-04-25 21:00;65;75;
2024-04-25 21:10;65;74;
2024-04-25 21:20;65;74;
2024-04-25 21:30;65;73;
2024-04-25 21:40;65;72;
2024-04-25 21:50;65;71;
2024-04-25 22:00;64;69;
2024-04-25 22:10;63;68;
2024-04-25 22:20;63;67;
2024-04-25 22:30;62;66;
2024-04-25 22:40;61;65;
2024-04-25 22:50;60;64;
2024-04-25 23:00;60;63;
2024-04-25 23:10;59;61;
2024-04-25 23:20;58;60;
2024-04-25 23:30;58;59;
2024-04-25 23:40;57;58;
2024-04-25 23:50;57;57;
2024-04-26 00:00;56;56;
2024-04-26 00:10;56;55;
2024-04-26 00:20;55;55;
2024-04-26 00:30;54;54;
2024-04-26 00:40;54;53;
2024-04-26 00:50;53;52;
2024-04-26 01:00;52;51;
2024-04-26 01:10;51;49;
2024-04-26 01:20;50;48;
2024-04-26 01:30;49;47;
2024-04-26 01:40;48;46;
2024-04-26 01:50;47;45;
2024-04-26 02:00;46;43;
2024-04-26 02:10;46;42;
2024-04-26 02:20;45;41;
2024-04-26 02:30;44;40;
2024-04-26 02:40;43;39;
2024-04-26 02:50;43;38;
2024-04-26 03:00;42;37;
2024-04-26 03:10;41;37;
2024-04-26 03:20;40;36;
2024-04-26 03:30;40;36;
2024-04-26 03:40;39;35;
2024-04-26 03:50;38;35;
2024-04-26 04:00;38;35;
2024-04-26 04:10;37;35;
2024-04-26 04:20;37;36;
2024-04-26 04:30;37;37;
2024-04-26 04:40;37;38;
2024-04-26 04:50;37;40;
2024-04-26 05:00;38;42;
2024-04-26 05:10;38;44;
2024-04-26 05:20;39;46;
2024-04-26 05:30;41;48;
2024-04-26 05:40;42;50;
2024-04-26 05:50;44;52;
2024-04-26 06:00;45;54;
2024-04-26 06:10;47;56;
2024-04-26 06:20;49;58;
2024-04-26 06:30;50;59;
2024-04-26 06:40;52;61;
2024-04-26 06:50;53;63;
2024-04-26 07:00;55;64;
2024-04-26 07:10;56;66;
2024-04-26 07:20;57;67;
2024-04-26 07:30;58;68;
2024-04-26 07:40;59;69;
2024-04-26 07:50;59;71;
2024-04-26 08:00;60;72;
2024-04-26 08:10;61;73;
2024-04-26 08:20;62;75;
2024-04-26 08:30;62;76;
2024-04-26 08:40;63;77;
2024-04-26 08:50;64;78;
2024-04-26 09:00;64;79;
2024-04-26 09:10;65;79;
2024-04-26 09:20;65;78;
2024-04-26 09:30;65;77;
2024-04-26 09:40;65;75;
2024-04-26 09:50;65;74;
2024-04-26 10:00;64;73;
2024-04-26 10:10;64;71;
2024-04-26 10:20;63;70;
2024-04-26 10:30;62;69;
2024-04-26 10:40;61;67;
2024-04-26 10:50;60;66;
2024-04-26 11:00;60;64;
2024-04-26 11:10;59;63;
2024-04-26 11:20;58;62;
2024-04-26 11:30;58;61;
2024-04-26 11:40;57;59;
2024-04-26 11:50;57;58;
2024-04-26 12:00;56;57;
2024-04-26 12:10;56;56;
2024-04-26 12:20;55;55;
2024-04-26 12:30;55;53;
2024-04-26 12:40;54;52;
2024-04-26 12:50;54;51;
2024-04-26 13:00;53;50;
2024-04-26 13:10;52;49;
2024-04-26 13:20;51;48;
2024-04-26 13:30;50;46;
2024-04-26 13:40;49;45;
2024-04-26 13:50;48;44;
2024-04-26 14:00;47;42;
2024-04-26 14:10;46;41;
2024-04-26 14:20;45;40;
2024-04-26 14:30;44;38;
2024-04-26 14:40;43;37;
2024-04-26 14:50;42;36;
2024-04-26 15:00;41;35;
2024-04-26 15:10;41;34;
2024-04-26 15:20;40;33;
2024-04-26 15:30;40;32;
2024-04-26 15:40;39;31;
2024-04-26 15:50;39;30;
2024-04-26 16:00;38;30;
2024-04-26 16:10;37;29;
2024-04-26 16:20;37;29;
2024-04-26 16:30;37;29;
2024-04-26 16:40;36;30;
2024-04-26 16:50;36;31;
2024-04-26 17:00;36;32;
2024-04-26 17:10;37;34;
2024-04-26 17:20;37;36;
2024-04-26 17:30;38;38;
2024-04-26 17:40;39;41;
2024-04-26 17:50;41;43;
2024-04-26 18:00;42;45;
2024-04-26 18:10;44;47;
2024-04-26 18:20;45;49;
2024-04-26 18:30;47;51;
2024-04-26 18:40;49;53;
2024-04-26 18:50;50;54;
2024-04-26 19:00;52;56;
2024-04-26 19:10;53;57;
2024-04-26 19:20;54;59;
2024-04-26 19:30;55;60;
2024-04-26 19:40;56;61;
2024-04-26 19:50;57;63;
2024-04-26 20:00;58;64;
2024-04-26 20:10;59;65;
2024-04-26 20:20;59;66;
2024-04-26 20:30;60;67;
2024-04-26 20:40;61;69;
2024-04-26 20:50;62;70;
2024-04-26 21:00;62;71;
2024-04-26 21:10;63;72;
2024-04-26 21:20;64;72;
2024-04-26 21:30;64;72;
2024-04-26 21:40;64;71;
2024-04-26 21:50;64;70;
2024-04-26 22:00;64;69;
2024-04-26 22:10;64;67;
2024-04-26 22:20;64;66;
2024-04-26 22:30;63;65;
2024-04-26 22:40;62;63;
2024-04-26 22:50;61;62;
2024-04-26 23:00;61;61;
2024-04-26 23:10;60;59;
2024-04-26 23:20;59;58;
2024-04-26 23:30;58;57;
2024-04-26 23:40;57;55;
2024-04-26 23:50;57;54;
2024-04-27 00:00;56;53;
2024-04-27 00:10;56;52;
2024-04-27 00:20;55;51;
2024-04-27 00:30;55;49;
2024-04-27 00:40;54;48;
2024-04-27 00:50;54;47;
2024-04-27 01:00;53;46;
2024-04-27 01:10;52;45;
2024-04-27 01:20;52;43;
2024-04-27 01:30;51;42;
2024-04-27 01:40;50;41;
2024-04-27 01:50;49;40;
2024-04-27 02:00;48;38;
2024-04-27 02:10;47;37;
2024-04-27 02:20;46;36;
2024-04-27 02:30;45;34;
2024-04-27 02:40;44;33;
2024-04-27 02:50;44;32;
2024-04-27 03:00;43;30;
2024-04-27 03:10;42;29;
2024-04-27 03:20;41;28;
2024-04-27 03:30;41;27;
2024-04-27 03:40;40;26;
2024-04-27 03:50;39;25;
2024-04-27 04:00;39;24;
2024-04-27 04:10;38;24;
2024-04-27 04:20;38;23;
2024-04-27 04:30;37;23;
2024-04-27 04:40;37;23;
2024-04-27 04:50;36;23;
2024-04-27 05:00;36;24;
2024-04-27 05:10;36;25;
2024-04-27 05:20;37;27;
2024-04-27 05:30;37;29;
2024-04-27 05:40;38;31;
2024-04-27 05:50;39;34;
2024-04-27 06:00;40;36;
2024-04-27 06:10;42;38;
2024-04-27 06:20;43;40;
2024-04-27 06:30;45;42;
2024-04-27 06:40;47;44;
2024-04-27 06:50;48;46;
2024-04-27 07:00;50;47;
2024-04-27 07:10;51;49;
2024-04-27 07:20;53;50;
2024-04-27 07:30;54;52;
2024-04-27 07:40;55;53;
2024-04-27 07:50;56;54;
2024-04-27 08:00;57;56;
2024-04-27 08:10;58;57;
2024-04-27 08:20;59;58;
2024-04-27 08:30;60;59;
2024-04-27 08:40;60;60;
2024-04-27 08:50;61;62;
2024-04-27 09:00;62;63;
2024-04-27 09:10;62;64;
2024-04-27 09:20;63;65;
2024-04-27 09:30;64;66;
2024-04-27 09:40;64;66;
2024-04-27 09:50;65;65;
2024-04-27 10:00;65;64;
2024-04-27 10:10;65;63;
2024-04-27 10:20;65;62;
2024-04-27 10:30;64;61;
2024-04-27 10:40;64;59;
2024-04-27 10:50;63;58;
2024-04-27 11:00;62;57;
2024-04-27 11:10;61;55;
2024-04-27 11:20;60;54;
2024-04-27 11:30;60;53;
2024-04-27 11:40;59;52;
2024-04-27 11:50;58;50;
2024-04-27 12:00;57;49;
2024-04-27 12:10;57;48;
2024-04-27 12:20;56;47;
2024-04-27 12:30;56;46;
2024-04-27 12:40;55;45;
2024-04-27 12:50;55;43;
2024-04-27 13:00;55;42;
2024-04-27 13:10;54;41;
2024-04-27 13:20;53;40;
2024-04-27 13:30;53;39;
2024-04-27 13:40;52;38;
2024-04-27 13:50;51;37;
2024-04-27 14:00;50;35;
2024-04-27 14:10;49;34;
2024-04-27 14:20;48;33;
2024-04-27 14:30;47;31;
2024-04-27 14:40;46;30;
2024-04-27 14:50;45;29;
2024-04-27 15:00;44;28;
2024-04-27 15:10;43;27;
2024-04-27 15:20;42;25;
2024-04-27 15:30;42;24;
2024-04-27 15:40;41;23;
2024-04-27 15:50;40;22;
2024-04-27 16:00;40;21;
2024-04-27 16:10;39;20;
2024-04-27 16:20;39;20;
2024-04-27 16:30;38;19;
2024-04-27 16:40;38;19;
2024-04-27 16:50;37;19;
2024-04-27 17:00;37;19;
2024-04-27 17:10;37;19;
2024-04-27 17:20;37;20;
2024-04-27 17:30;37;21;
2024-04-27 17:40;37;23;
2024-04-27 17:50;38;25;
2024-04-27 18:00;38;27;
2024-04-27 18:10;39;30;
2024-04-27 18:20;41;32;
2024-04-27 18:30;42;34;
2024-04-27 18:40;43;36;
2024-04-27 18:50;45;38;
2024-04-27 19:00;47;40;
2024-04-27 19:10;48;42;
2024-04-27 19:20;50;43;
2024-04-27 19:30;51;45;
2024-04-27 19:40;53;47;
2024-04-27 19:50;54;48;
2024-04-27 20:00;55;49;
2024-04-27 20:10;56;51;
2024-04-27 20:20;57;52;
2024-04-27 20:30;57;53;
2024-04-27 20:40;58;54;
2024-04-27 20:50;59;55;
2024-04-27 21:00;59;56;
2024-04-27 21:10;60;58;
2024-04-27 21:20;61;59;
2024-04-27 21:30;61;60;
2024-04-27 21:40;62;61;
2024-04-27 21:50;62;62;
2024-04-27 22:00;63;62;
2024-04-27 22:10;63;61;
2024-04-27 22:20;63;60;
2024-04-27 22:30;63;59;
2024-04-27 22:40;63;58;
2024-04-27 22:50;63;57;
2024-04-27 23:00;62;56;
2024-04-27 23:10;61;54;
2024-04-27 23:20;60;53;
2024-04-27 23:30;59;52;
2024-04-27 23:40;58;50;
2024-04-27 23:50;57;49;
2024-04-28 00:00;56;48;
2024-04-28 00:10;56;47;
2024-04-28 00:20;55;45;
2024-04-28 00:30;54;44;
2024-04-28 00:40;54;43;
2024-04-28 00:50;53;42;
2024-04-28 01:00;53;41;
2024-04-28 01:10;52;40;
2024-04-28 01:20;52;39;
2024-04-28 01:30;51;38;
2024-04-28 01:40;50;37;
2024-04-28 01:50;50;36;
2024-04-28 02:00;49;35;
2024-04-28 02:10;48;33;
2024-04-28 02:20;47;32;
2024-04-28 02:30;46;31;
2024-04-28 02:40;45;30;
2024-04-28 02:50;44;28;
2024-04-28 03:00;43;27;
2024-04-28 03:10;42;26;
2024-04-28 03:20;41;25;
2024-04-28 03:30;41;24;
2024-04-28 03:40;40;23;
2024-04-28 03:50;39;22;
2024-04-28 04:00;39;21;
2024-04-28 04:10;38;20;
2024-04-28 04:20;37;19;
2024-04-28 04:30;37;19;
2024-04-28 04:40;36;18;
2024-04-28 04:50;36;18;
2024-04-28 05:00;35;17;
2024-04-28 05:10;35;18;
2024-04-28 05:20;35;18;
2024-04-28 05:30;35;19;
2024-04-28 05:40;35;20;
2024-04-28 05:50;35;22;
2024-04-28 06:00;36;24;
2024-04-28 06:10;36;26;
2024-04-28 06:20;37;28;
2024-04-28 06:30;39;30;
2024-04-28 06:40;40;33;
2024-04-28 06:50;42;35;
2024-04-28 07:00;43;37;
2024-04-28 07:10;45;38;
2024-04-28 07:20;47;40;
2024-04-28 07:30;48;42;
2024-04-28 07:40;50;43;
2024-04-28 07:50;52;45;
2024-04-28 08:00;53;47;
2024-04-28 08:10;54;48;
2024-04-28 08:20;55;49;
2024-04-28 08:30;56;50;
2024-04-28 08:40;57;52;
2024-04-28 08:50;58;53;
2024-04-28 09:00;59;54;
2024-04-28 09:10;59;55;
2024-04-28 09:20;60;57;
2024-04-28 09:30;61;58;
2024-04-28 09:40;61;59;
2024-04-28 09:50;62;61;
2024-04-28 10:00;63;62;
2024-04-28 10:10;63;62;
2024-04-28 10:20;64;62;
2024-04-28 10:30;64;62;
2024-04-28 10:40;64;61;
2024-04-28 10:50;64;60;
2024-04-28 11:00;64;59;
2024-04-28 11:10;64;58;
2024-04-28 11:20;63;57;
2024-04-28 11:30;62;56;
2024-04-28 11:40;62;55;
2024-04-28 11:50;61;54;
2024-04-28 12:00;60;53;
2024-04-28 12:10;59;52;
2024-04-28 12:20;58;51;
2024-04-28 12:30;57;50;
2024-04-28 12:40;56;49;
2024-04-28 12:50;56;48;
2024-04-28 13:00;55;47;
2024-04-28 13:10;55;46;
2024-04-28 13:20;55;45;
2024-04-28 13:30;54;44;
2024-04-28 13:40;54;43;
2024-04-28 13:50;53;43;
2024-04-28 14:00;52;42;
2024-04-28 14:10;51;41;
2024-04-28 14:20;51;39;
2024-04-28 14:30;50;38;
2024-04-28 14:40;49;37;
2024-04-28 14:50;48;36;
2024-04-28 15:00;47;35;
2024-04-28 15:10;46;34;
2024-04-28 15:20;45;33;
2024-04-28 15:30;44;32;
2024-04-28 15:40;43;31;
2024-04-28 15:50;42;30;
2024-04-28 16:00;41;29;
2024-04-28 16:10;41;28;
2024-04-28 16:20;40;27;
2024-04-28 16:30;39;26;
2024-04-28 16:40;39;25;
2024-04-28 16:50;38;25;
2024-04-28 17:00;38;24;
2024-04-28 17:10;38;23;
2024-04-28 17:20;37;23;
2024-04-28 17:30;37;23;
2024-04-28 17:40;37;23;
2024-04-28 17:50;37;24;
2024-04-28 18:00;37;25;
2024-04-28 18:10;37;26;
2024-04-28 18:20;37;28;
2024-04-28 18:30;38;30;
2024-04-28 18:40;39;31;
2024-04-28 18:50;40;33;
2024-04-28 19:00;41;35;
2024-04-28 19:10;42;37;
2024-04-28 19:20;44;39;
2024-04-28 19:30;45;41;
2024-04-28 19:40;47;43;
2024-04-28 19:50;49;44;
2024-04-28 20:00;50;46;
2024-04-28 20:10;51;47;
2024-04-28 20:20;53;49;
2024-04-28 20:30;54;50;
2024-04-28 20:40;55;51;
2024-04-28 20:50;56;53;
2024-04-28 21:00;57;54;
2024-04-28 21:10;57;55;
2024-04-28 21:20;58;56;
2024-04-28 21:30;59;57;
2024-04-28 21:40;59;58;
2024-04-28 21:50;60;59;
2024-04-28 22:00;60;61;
2024-04-28 22:10;61;62;
2024-04-28 22:20;61;62;
2024-04-28 22:30;61;63;
2024-04-28 22:40;62;62;
2024-04-28 22:50;62;62;
2024-04-28 23:00;62;61;
2024-04-28 23:10;62;60;
2024-04-28 23:20;61;59;
2024-04-28 23:30;61;58;
2024-04-28 23:40;60;57;
2024-04-28 23:50;59;56;
2024-04-29 00:00;58;55;
2024-04-29 00:10;57;53;
2024-04-29 00:20;56;52;
2024-04-29 00:30;55;51;
2024-04-29 00:40;54;50;
2024-04-29 00:50;54;49;
2024-04-29 01:00;53;48;